• In Hungary
  • List of Countries
  • For 7 days
  • Water Temperature
  • Satellite Maps
  • Weather Map
  • News
  • Weather Widgets
  • user-avatar
    Login

    Hourly Weather Simeiz

    Today, 22 September, Saturday

    Time Temperature Precipitation Wind Pressure Humidity
    00:00 +17°C° 0 mm 3 mps 719 mmHg 60%
    01:00 +17°C° 0 mm 3 mps 719 mmHg 58%
    02:00 +17°C° 0 mm 3 mps 719 mmHg 56%
    03:00 +17°C° 0 mm 3 mps 719 mmHg 56%
    04:00 +17°C° 0 mm 3 mps 719 mmHg 55%
    05:00 +16°C° 0 mm 3 mps 718 mmHg 54%
    06:00 +18°C° 0 mm 3 mps 719 mmHg 51%
    07:00 +20°C° 0 mm 3 mps 719 mmHg 49%
    08:00 +23°C° 0 mm 2 mps 719 mmHg 46%
    09:00 +24°C° 0 mm 2 mps 719 mmHg 43%
    10:00 +26°C° 0 mm 2 mps 719 mmHg 39%
    11:00 +27°C° 0 mm 2 mps 719 mmHg 36%
    12:00 +27°C° 0 mm 2 mps 719 mmHg 36%
    13:00 +27°C° 0 mm 2 mps 719 mmHg 36%
    14:00 +27°C° 0 mm 3 mps 719 mmHg 37%
    15:00 +26°C° 0 mm 2 mps 718 mmHg 43%
    16:00 +24°C° 0 mm 2 mps 718 mmHg 49%
    17:00 +23°C° 0 mm 2 mps 718 mmHg 55%
    18:00 +21°C° 0 mm 2 mps 718 mmHg 59%
    19:00 +20°C° 0 mm 2 mps 718 mmHg 63%
    20:00 +18°C° 0 mm 2 mps 718 mmHg 67%
    21:00 +18°C° 0 mm 2 mps 718 mmHg 68%
    22:00 +18°C° 0 mm 2 mps 718 mmHg 68%
    23:00 +18°C° 0 mm 2 mps 718 mmHg 69%

    Tomorrow, 23 September, Sunday

    Time Temperature Precipitation Wind Pressure Humidity
    00:00 +17°C° 0 mm 2 mps 718 mmHg 69%
    01:00 +17°C° 0 mm 3 mps 718 mmHg 70%
    02:00 +17°C° 0 mm 3 mps 718 mmHg 70%
    03:00 +17°C° 0 mm 3 mps 718 mmHg 72%
    04:00 +16°C° 0 mm 3 mps 718 mmHg 73%
    05:00 +16°C° 0 mm 3 mps 718 mmHg 75%
    06:00 +18°C° 0 mm 3 mps 718 mmHg 69%
    07:00 +19°C° 0 mm 3 mps 718 mmHg 64%
    08:00 +20°C° 0 mm 3 mps 718 mmHg 59%
    09:00 +21°C° 0 mm 4 mps 719 mmHg 56%
    10:00 +22°C° 0 mm 4 mps 719 mmHg 54%
    11:00 +23°C° 0 mm 4 mps 719 mmHg 52%
    12:00 +23°C° 0 mm 5 mps 719 mmHg 53%
    13:00 +23°C° 0 mm 5 mps 719 mmHg 55%
    14:00 +23°C° 0 mm 5 mps 719 mmHg 56%
    15:00 +21°C° 0 mm 5 mps 719 mmHg 62%
    16:00 +20°C° 0 mm 5 mps 719 mmHg 67%
    17:00 +19°C° 0 mm 5 mps 720 mmHg 72%
    18:00 +16°C° 0 mm 5 mps 720 mmHg 76%
    19:00 +15°C° 0 mm 5 mps 720 mmHg 80%
    20:00 +14°C° 0 mm 5 mps 720 mmHg 85%
    21:00 +13°C° 0 mm 5 mps 721 mmHg 83%
    22:00 +13°C° 0 mm 4 mps 721 mmHg 82%
    23:00 +13°C° 0 mm 4 mps 721 mmHg 80%

    Day after tomorrow, 24 September, Monday

    Time Temperature Precipitation Wind Pressure Humidity
    00:00 +12°C° 0 mm 3 mps 721 mmHg 78%
    01:00 +12°C° 0 mm 3 mps 720 mmHg 76%
    02:00 +12°C° 0 mm 3 mps 720 mmHg 74%
    03:00 +12°C° 0 mm 3 mps 720 mmHg 74%
    04:00 +12°C° 0 mm 4 mps 720 mmHg 74%
    05:00 +12°C° 0 mm 4 mps 720 mmHg 74%
    06:00 +13°C° 0 mm 4 mps 719 mmHg 70%
    07:00 +14°C° 0 mm 5 mps 719 mmHg 65%
    08:00 +16°C° 0 mm 5 mps 719 mmHg 61%
    09:00 +17°C° 0 mm 5 mps 719 mmHg 57%
    10:00 +19°C° 0 mm 5 mps 718 mmHg 53%
    11:00 +21°C° 0 mm 5 mps 718 mmHg 49%
    12:00 +21°C° 0 mm 5 mps 718 mmHg 50%
    13:00 +22°C° 0 mm 5 mps 717 mmHg 50%
    14:00 +22°C° 0 mm 5 mps 717 mmHg 51%
    15:00 +21°C° 0 mm 5 mps 716 mmHg 57%
    16:00 +20°C° 0 mm 5 mps 716 mmHg 63%
    17:00 +19°C° 0 mm 4 mps 715 mmHg 69%
    18:00 +18°C° 0 mm 4 mps 715 mmHg 73%
    19:00 +18°C° 0 mm 4 mps 715 mmHg 76%
    20:00 +17°C° 0 mm 4 mps 715 mmHg 80%
    21:00 +17°C° 0 mm 4 mps 716 mmHg 82%
    22:00 +18°C° 0 mm 4 mps 716 mmHg 83%
    23:00 +18°C° 0 mm 3 mps 716 mmHg 85%

    25 September, Tuesday

    Time Temperature Precipitation Wind Pressure Humidity
    00:00 +15°C° 0 mm 5 mps 716 mmHg 82%
    01:00 +14°C° 0 mm 6 mps 717 mmHg 80%
    02:00 +12°C° 0 mm 8 mps 717 mmHg 77%
    03:00 +11°C° 0.1 mm 7 mps 717 mmHg 77%
    04:00 +10°C° 0.1 mm 7 mps 717 mmHg 78%
    05:00 +9°C° 0.1 mm 7 mps 718 mmHg 78%
    06:00 +9°C° 0.1 mm 7 mps 718 mmHg 77%
    07:00 +9°C° 0.1 mm 6 mps 719 mmHg 75%
    08:00 +9°C° 0.1 mm 6 mps 719 mmHg 74%
    09:00 +9°C° 0.5 mm 6 mps 720 mmHg 75%
    10:00 +9°C° 0.5 mm 6 mps 720 mmHg 76%
    11:00 +9°C° 0.5 mm 6 mps 720 mmHg 76%
    12:00 +9°C° 0.2 mm 6 mps 720 mmHg 74%
    13:00 +9°C° 0.2 mm 6 mps 721 mmHg 72%
    14:00 +9°C° 0.2 mm 6 mps 721 mmHg 70%
    15:00 +9°C° 0.1 mm 6 mps 721 mmHg 69%
    16:00 +9°C° 0.1 mm 6 mps 721 mmHg 69%
    17:00 +9°C° 0.1 mm 6 mps 721 mmHg 68%
    18:00 +9°C° 0.1 mm 6 mps 721 mmHg 70%
    19:00 +8°C° 0.1 mm 6 mps 722 mmHg 72%
    20:00 +8°C° 0.1 mm 5 mps 722 mmHg 73%
    21:00 +8°C° 0.1 mm 5 mps 722 mmHg 75%
    22:00 +7°C° 0.1 mm 5 mps 722 mmHg 78%
    23:00 +6°C° 0.1 mm 4 mps 722 mmHg 80%

    26 September, Wednesday

    Time Temperature Precipitation Wind Pressure Humidity
    00:00 +6°C° 0.1 mm 5 mps 722 mmHg 80%
    01:00 +5°C° 0.1 mm 5 mps 722 mmHg 80%
    02:00 +5°C° 0.1 mm 5 mps 722 mmHg 81%
    03:00 +5°C° 0 mm 5 mps 723 mmHg 82%
    04:00 +4°C° 0 mm 6 mps 723 mmHg 84%
    05:00 +3°C° 0 mm 6 mps 723 mmHg 86%
    06:00 +4°C° 0 mm 6 mps 724 mmHg 80%
    07:00 +5°C° 0 mm 6 mps 724 mmHg 75%
    08:00 +6°C° 0 mm 7 mps 725 mmHg 69%
    09:00 +8°C° 0 mm 6 mps 725 mmHg 62%
    10:00 +10°C° 0 mm 6 mps 725 mmHg 55%
    11:00 +11°C° 0 mm 6 mps 726 mmHg 47%
    12:00 +11°C° 0 mm 6 mps 726 mmHg 46%
    13:00 +11°C° 0 mm 6 mps 726 mmHg 45%
    14:00 +11°C° 0 mm 6 mps 726 mmHg 44%
    15:00 +11°C° 0 mm 6 mps 726 mmHg 46%
    16:00 +10°C° 0 mm 6 mps 726 mmHg 49%
    17:00 +9°C° 0 mm 5 mps 726 mmHg 51%
    18:00 +8°C° 0 mm 6 mps 727 mmHg 54%
    19:00 +7°C° 0 mm 6 mps 727 mmHg 57%
    20:00 +5°C° 0 mm 6 mps 727 mmHg 59%
    21:00 +5°C° 0 mm 6 mps 727 mmHg 61%
    22:00 +5°C° 0 mm 5 mps 727 mmHg 62%
    23:00 +5°C° 0 mm 5 mps 727 mmHg 63%

    27 September, Thursday

    Time Temperature Precipitation Wind Pressure Humidity
    00:00 +5°C° 0 mm 5 mps 727 mmHg 64%
    01:00 +3°C° 0 mm 5 mps 727 mmHg 65%
    02:00 +3°C° 0 mm 5 mps 727 mmHg 66%
    03:00 +3°C° 0 mm 5 mps 727 mmHg 67%
    04:00 +3°C° 0 mm 5 mps 727 mmHg 68%
    05:00 +3°C° 0 mm 4 mps 727 mmHg 69%
    06:00 +5°C° 0 mm 4 mps 727 mmHg 64%
    07:00 +6°C° 0 mm 4 mps 727 mmHg 58%
    08:00 +8°C° 0 mm 4 mps 727 mmHg 53%
    09:00 +10°C° 0 mm 3 mps 726 mmHg 48%
    10:00 +12°C° 0 mm 3 mps 726 mmHg 43%
    11:00 +14°C° 0 mm 3 mps 726 mmHg 38%
    12:00 +15°C° 0 mm 2 mps 726 mmHg 37%
    13:00 +15°C° 0 mm 2 mps 725 mmHg 35%
    14:00 +16°C° 0 mm 2 mps 725 mmHg 34%
    15:00 +15°C° 0 mm 2 mps 725 mmHg 37%
    16:00 +14°C° 0 mm 2 mps 724 mmHg 41%
    17:00 +12°C° 0 mm 2 mps 724 mmHg 44%
    18:00 +11°C° 0 mm 1 mps 724 mmHg 47%
    19:00 +10°C° 0 mm 1 mps 724 mmHg 49%
    20:00 +9°C° 0 mm 1 mps 723 mmHg 51%
    21:00 +9°C° 0 mm 1 mps 723 mmHg 52%
    22:00 +9°C° 0 mm 1 mps 723 mmHg 53%
    23:00 +9°C° 0 mm 1 mps 722 mmHg 54%
    Show more